Marysville, OH

6:28 PM EST on November 23, 2017 (GMT -0500)
Marysville

Weather History for KMRT - October, 2013

Change the Weather History Date:

Tuesday, October 8, 2013

  Actual Average (KDLZ) Record (KDLZ)
Temperature  
Mean Temperature 51 °F -  
Max Temperature 66 °F 64 °F 91 °F (1939)
Min Temperature 36 °F 40 °F 28 °F (1952)
Degree Days  
Heating Degree Days 14    
Growing Degree Days 1 (Base 50)    
Moisture  
Dew Point 40 °F    
Average Humidity 73    
Maximum Humidity 97    
Minimum Humidity 34    
Precipitation  
Precipitation 0.00 in - - ()
Sea Level Pressure  
Sea Level Pressure 30.24 in    
Wind  
Wind Speed 1 mph (ESE)    
Max Wind Speed 8 mph    
Max Gust Speed -    
Visibility 8 miles    
Events      
Averages and records for this station are not official NWS values.
T = Trace of Precipitation, MM = Missing Value Source: NWS Daily Summary

Daily Weather History Graph

Daily Weather History Graph

Search for Another Location

Airport or City:

Trip Planner

Search our weather history database for the weather conditions in past years. The results will help you decide how hot, cold, wet, or windy it might be!

Date:

Astronomy

Oct. 08, 2013 Rise Set
Actual Time 7:37 AM EDT 7:03 PM EDT
Civil Twilight 7:09 AM EDT 7:31 PM EDT
Nautical Twilight 6:38 AM EDT 8:02 PM EDT
Astronomical Twilight 6:06 AM EDT 8:34 PM EDT
Moon 11:30 AM EDT (10/8) 9:39 PM EDT (10/8)
Length of Visible Light 12h 21m
Length of Day
11h 26m
Waxing Crescent, 16% of the Moon is Illuminated
Oct 8
Waxing Crescent
Oct 11
First Quarter
Oct 18
Full
Oct 26
Last Quarter
Nov 3
New

Hourly Weather History & Observations

Time (EDT) Temp. Windchill Dew Point Humidity Pressure Visibility Wind Dir Wind Speed Gust Speed Precip Events Conditions
12:14 AM 43.3 °F - 40.8 °F 91% 30.17 in 10.0 mi Calm Calm - N/A   Clear
12:33 AM 43.2 °F - 41.2 °F 93% 30.17 in 10.0 mi Calm Calm - N/A   Clear
12:53 AM 41.9 °F - 40.1 °F 93% 30.17 in 5.0 mi Calm Calm - N/A   Clear
1:14 AM 43.0 °F - 41.4 °F 94% 30.18 in 7.0 mi Calm Calm - N/A   Clear
1:33 AM 42.8 °F - 41.2 °F 94% 30.18 in 5.0 mi Calm Calm - N/A   Clear
1:53 AM 41.7 °F - 39.6 °F 92% 30.19 in 4.0 mi Calm Calm - N/A   Clear
2:14 AM 41.0 °F - 39.4 °F 94% 30.19 in 4.0 mi Calm Calm - N/A   Clear
2:33 AM 41.9 °F - 40.1 °F 93% 30.19 in 4.0 mi Calm Calm - N/A   Clear
2:54 AM 41.0 °F 39.0 °F 39.6 °F 95% 30.19 in 4.0 mi SW 3.5 mph - N/A   Clear
3:13 AM 41.2 °F - 39.9 °F 95% 30.19 in 5.0 mi Calm Calm - N/A   Clear
3:33 AM 40.6 °F 38.6 °F 39.4 °F 95% 30.19 in 4.0 mi SW 3.5 mph - N/A   Clear
3:54 AM 39.9 °F - 38.7 °F 95% 30.19 in 4.0 mi Calm Calm - N/A   Clear
4:13 AM 39.0 °F - 37.8 °F 95% 30.19 in 1.2 mi Calm Calm - N/A   Unknown
4:33 AM 39.9 °F - 38.7 °F 95% 30.20 in 5.0 mi Calm Calm - N/A   Clear
4:54 AM 37.8 °F - 36.7 °F 96% 30.20 in 3.0 mi Calm Calm - N/A   Clear
5:13 AM 38.8 °F - 37.8 °F 96% 30.21 in 7.0 mi Calm Calm - N/A   Clear
5:33 AM 40.1 °F - 38.8 °F 95% 30.21 in 7.0 mi Calm Calm - N/A   Clear
5:54 AM 36.5 °F - 35.6 °F 97% 30.21 in 5.0 mi Calm Calm - N/A   Clear
6:13 AM 37.6 °F - 36.5 °F 96% 30.22 in 4.0 mi Calm Calm - N/A   Clear
6:33 AM 37.8 °F - 36.7 °F 96% 30.22 in 7.0 mi Calm Calm - N/A   Clear
6:54 AM 37.2 °F - 36.3 °F 97% 30.23 in 7.0 mi Calm Calm - N/A   Clear
7:13 AM 36.5 °F - 35.6 °F 97% 30.25 in 4.0 mi Calm Calm - N/A   Clear
7:33 AM 36.9 °F - 36.0 °F 97% 30.25 in 0.5 mi Calm Calm - N/A   Unknown
7:54 AM 36.0 °F - 35.1 °F 97% 30.26 in 1.0 mi Calm Calm - N/A   Unknown
8:13 AM 36.5 °F - 35.6 °F 97% 30.28 in 2.5 mi Calm Calm - N/A   Clear
8:33 AM 41.2 °F - 40.1 °F 96% 30.28 in 3.0 mi Calm Calm - N/A   Clear
8:54 AM 44.4 °F - 43.2 °F 95% 30.29 in 10.0 mi Calm Calm - N/A   Clear
9:13 AM 47.3 °F - 45.7 °F 94% 30.30 in 10.0 mi Calm Calm - N/A   Clear
9:34 AM 49.3 °F - 45.1 °F 86% 30.30 in 10.0 mi Calm Calm - N/A   Clear
9:53 AM 52.3 °F - 46.0 °F 79% 30.30 in 10.0 mi ENE 3.5 mph - N/A   Clear
10:13 AM 54.5 °F - 45.3 °F 71% 30.30 in 10.0 mi Calm Calm - N/A   Clear
10:34 AM 56.3 °F - 44.8 °F 65% 30.30 in 10.0 mi East 3.5 mph - N/A   Clear
10:53 AM 57.7 °F - 44.6 °F 62% 30.30 in 10.0 mi East 3.5 mph - N/A   Clear
11:13 AM 59.0 °F - 41.5 °F 52% 30.30 in 10.0 mi East 3.5 mph - N/A   Clear
11:34 AM 59.7 °F - 42.1 °F 52% 30.30 in 10.0 mi NE 3.5 mph - N/A   Clear
11:53 AM 60.8 °F - 41.2 °F 48% 30.30 in 10.0 mi East 4.6 mph - N/A   Clear
12:13 PM 61.9 °F - 40.3 °F 45% 30.30 in 10.0 mi ESE 4.6 mph - N/A   Clear
12:34 PM 62.1 °F - 39.0 °F 43% 30.29 in 10.0 mi SE 4.6 mph - N/A   Clear
12:53 PM 63.7 °F - 37.8 °F 38% 30.29 in 10.0 mi SE 6.9 mph - N/A   Clear
1:13 PM 64.0 °F - 37.4 °F 37% 30.29 in 10.0 mi South 4.6 mph - N/A   Clear
1:33 PM 64.2 °F - 38.7 °F 39% 30.28 in 10.0 mi East 5.8 mph - N/A   Clear
1:53 PM 65.1 °F - 38.5 °F 37% 30.27 in 10.0 mi East 5.8 mph - N/A   Clear
2:14 PM 64.6 °F - 38.5 °F 38% 30.26 in 4.0 mi ESE 3.5 mph - N/A   Clear
2:33 PM 66.2 °F - 37.0 °F 34% 30.26 in 10.0 mi ESE 8.1 mph - N/A   Clear
2:53 PM 66.0 °F - 38.1 °F 36% 30.25 in 10.0 mi ESE 4.6 mph - N/A   Clear
3:14 PM 66.6 °F - 37.0 °F 34% 30.25 in 10.0 mi SE 4.6 mph - N/A   Clear
3:33 PM 66.7 °F - 38.1 °F 35% 30.25 in 10.0 mi East 6.9 mph - N/A   Clear
3:53 PM 66.4 °F - 38.5 °F 36% 30.24 in 10.0 mi SSE 5.8 mph - N/A   Clear
4:13 PM 66.9 °F - 37.6 °F 34% 30.24 in 10.0 mi East 3.5 mph - N/A   Clear
4:34 PM 66.4 °F - 37.9 °F 35% 30.24 in 10.0 mi ESE 6.9 mph - N/A   Clear
4:53 PM 66.4 °F - 37.9 °F 35% 30.24 in 10.0 mi ESE 4.6 mph - N/A   Clear
5:13 PM 66.2 °F - 38.3 °F 36% 30.24 in 10.0 mi East 3.5 mph - N/A   Clear
5:34 PM 65.7 °F - 38.7 °F 37% 30.24 in 10.0 mi SE 3.5 mph - N/A   Clear
5:53 PM 65.3 °F - 39.4 °F 39% 30.24 in 10.0 mi Calm Calm - N/A   Clear
6:13 PM 64.6 °F - 40.1 °F 41% 30.24 in 10.0 mi Calm Calm - N/A   Clear
6:34 PM 63.7 °F - 40.6 °F 43% 30.25 in 10.0 mi Calm Calm - N/A   Clear
6:53 PM 60.8 °F - 42.4 °F 51% 30.24 in 10.0 mi ENE 5.8 mph - N/A   Clear
7:13 PM 56.1 °F - 44.2 °F 64% 30.24 in 10.0 mi Calm Calm - N/A   Clear
7:34 PM 52.2 °F - 43.9 °F 73% 30.24 in 10.0 mi Calm Calm - N/A   Clear
7:53 PM 49.8 °F - 44.2 °F 81% 30.24 in 10.0 mi Calm Calm - N/A   Clear
8:13 PM 48.7 °F - 44.1 °F 84% 30.25 in 10.0 mi Calm Calm - N/A   Clear
8:34 PM 47.8 °F - 44.4 °F 88% 30.25 in 10.0 mi Calm Calm - N/A   Clear
8:53 PM 47.1 °F - 43.9 °F 88% 30.25 in 10.0 mi Calm Calm - N/A   Clear
9:13 PM 48.2 °F - 44.2 °F 86% 30.26 in 10.0 mi Calm Calm - N/A   Clear
9:33 PM 48.0 °F - 44.2 °F 87% 30.26 in 10.0 mi Calm Calm - N/A   Clear
9:53 PM 46.0 °F - 42.4 °F 87% 30.26 in 10.0 mi Calm Calm - N/A   Clear
10:14 PM 45.1 °F - 42.3 °F 90% 30.26 in 10.0 mi Calm Calm - N/A   Clear
10:33 PM 44.1 °F - 41.7 °F 91% 30.26 in 10.0 mi Calm Calm - N/A   Clear
10:53 PM 43.0 °F - 41.0 °F 93% 30.26 in 10.0 mi Calm Calm - N/A   Clear
11:14 PM 44.4 °F - 42.4 °F 93% 30.26 in 10.0 mi Calm Calm - N/A   Clear
11:33 PM 43.7 °F - 42.1 °F 94% 30.26 in 10.0 mi Calm Calm - N/A   Clear
11:53 PM 42.8 °F - 40.6 °F 92% 30.26 in 10.0 mi Calm Calm - N/A   Clear